Location: Cisewo
(53.3833°N, 14.9000°E)
Time: 17:51:41
(UTC+00:00)

BEESAT 3 - Pass Details

Date: 29 September 2021
Orbit: 481 x 510 km, 64.9° (Epoch: 21 October)

Event Time Altitude Azimuth Distance (km) Brightness Sun altitude
Rises 19:27:51 0° 316° (NW) 2,616 ? -24.6°
Reaches altitude 10° 19:30:10 10° 326° (NNW) 1,732 ? -24.9°
Enters shadow 19:32:53 30° 6° (N) 949 ? -25.2°
